Location: Lombard
(41.8800°N, 88.0080°W)
Time: 11:42:29
(UTC-05:00)

A-11 Canister half - Pass Details

Date: 31 January 2023
Orbit: 1512 x 1687 km, 47.2° (Epoch: 20 March)

Event Time Altitude Azimuth Distance (km) Brightness Sun altitude
Rises 17:37:50 0° 296° (WNW) 4,702 12.3 -6.4°
Reaches altitude 10° 17:40:56 10° 294° (WNW) 3,701 11.8 -7.0°
Maximum altitude 17:50:03 65° 216° (SW) 1,643 9.4 -8.6°
Drops below altitude 10° 17:59:07 10° 137° (SE) 3,670 10.7 -10.2°
Sets 18:02:10 0° 134° (SE) 4,660 11.2 -10.8°
